Location: Linton
(52.0940°N, 0.2850°E)
Time: 17:12:56
(UTC+01:00)

ISS - Pass Details

Date: 09 October 2017
Orbit: 401 x 408 km, 51.6° (Epoch: 21 October)

Event Time Altitude Azimuth Distance (km) Brightness Sun altitude
Rises 20:56:02 0° 281° (WNW) 2,330 1.3 -24.7°
Reaches altitude 10° 20:58:25 10° 266° (W) 1,468 -0.2 -25.1°
Enters shadow 20:59:54 18° 242° (WSW) 1,069 -1.3 -25.3°
